User: anonymous   Login
Location: Unspecified
(0.0000°N, 0.0000°E)
Time: 04:28:14
(UTC+00:00)
Language:

S-NET D - Orbit

View from above orbital plane
View from above orbital plane
View from above satellite
View from above satellite

Ground track
Ground track

The orbit data is extracted from the following two-line orbital elements,

1 43186U 18014G   21215.47710225  .00000427  00000-0  42019-4 0  9998
2 43186  97.6730 122.2129 0009478 286.1584  73.8594 14.97098002191330
Epoch (UTC): 03 August 2021 11:27:01
Eccentricity: 0.0009478
inclination: 97.6730°
perigee height: 569 km
apogee height: 582 km
right ascension of ascending node: 122.2129°
argument of perigee: 286.1584°
revolutions per day: 14.97098002
mean anomaly at epoch: 73.8594°
orbit number at epoch: 19133

The dashed part of the orbit path shows where the satellite is in the earth's shadow,  

DLR